EZY445 EGPH-EGCC

Flight info

Callsign EZY445
Flight time 0h 51m
Altitude 24000
Route GOSAM1D GOSAM P600 FENIK/N0357F250 L612 LAKEY LAKEY1M
Aircraft A20N/M-SDE2E3FGHIRWXY/LB1

Departure

Time 2026-04-22 19:04
Airport Edinburgh Airport (EGPH)

Arrival

Time 2026-04-22 19:56
Airport Manchester Airport (EGCC)
Time Latitude Longitude Altitude Speed Heading
2026-04-22 18:43 55.94903 -3.36492 108 ft 0 kts 147°
2026-04-22 18:54 55.94906 -3.36495 108 ft 1 kts 152°
2026-04-22 18:54 55.94910 -3.36499 108 ft 1 kts 158°
2026-04-22 18:55 55.94915 -3.36502 107 ft 1 kts 164°
2026-04-22 18:55 55.94919 -3.36505 107 ft 1 kts 171°
2026-04-22 18:55 55.94924 -3.36506 107 ft 1 kts 177°
2026-04-22 18:55 55.94929 -3.36506 108 ft 1 kts 183°
2026-04-22 18:56 55.94933 -3.36506 108 ft 1 kts 196°
2026-04-22 18:56 55.94938 -3.36504 108 ft 1 kts 210°
2026-04-22 18:56 55.94942 -3.36500 107 ft 1 kts 224°
2026-04-22 18:56 55.94943 -3.36499 107 ft 0 kts 227°
2026-04-22 18:58 55.94942 -3.36499 107 ft 0 kts 227°
2026-04-22 18:59 55.94942 -3.36501 107 ft 2 kts 228°
2026-04-22 18:59 55.94925 -3.36568 109 ft 11 kts 248°
2026-04-22 18:59 55.94897 -3.36730 109 ft 16 kts 259°
2026-04-22 19:00 55.94918 -3.36838 110 ft 10 kts 296°
2026-04-22 19:00 55.94894 -3.36979 106 ft 15 kts 240°
2026-04-22 19:00 55.94836 -3.37155 109 ft 19 kts 239°
2026-04-22 19:00 55.94776 -3.37340 112 ft 0 kts 239°
2026-04-22 19:01 55.94758 -3.37393 113 ft 10 kts 238°
2026-04-22 19:01 55.94712 -3.37529 114 ft 15 kts 239°
2026-04-22 19:01 55.94653 -3.37707 116 ft 18 kts 237°
2026-04-22 19:01 55.94579 -3.37915 112 ft 20 kts 238°
2026-04-22 19:02 55.94516 -3.38100 113 ft 16 kts 239°
2026-04-22 19:02 55.94462 -3.38259 115 ft 14 kts 238°
2026-04-22 19:02 55.94409 -3.38418 115 ft 17 kts 240°
2026-04-22 19:02 55.94345 -3.38610 118 ft 19 kts 237°
2026-04-22 19:03 55.94294 -3.38759 118 ft 9 kts 239°
2026-04-22 19:03 55.94297 -3.38866 120 ft 10 kts 307°
2026-04-22 19:03 55.94363 -3.38948 121 ft 14 kts 332°
2026-04-22 19:03 55.94445 -3.38886 121 ft 15 kts 58°
2026-04-22 19:04 55.94568 -3.38523 119 ft 74 kts 58°
2026-04-22 19:04 55.94979 -3.37326 159 ft 145 kts 58°
2026-04-22 19:04 55.95577 -3.35622 541 ft 181 kts 59°
2026-04-22 19:04 55.96298 -3.33469 949 ft 210 kts 56°
2026-04-22 19:05 55.97306 -3.31697 1302 ft 206 kts 40°
2026-04-22 19:05 55.98487 -3.30193 1625 ft 209 kts 38°
2026-04-22 19:05 55.99683 -3.28668 1979 ft 213 kts 36°
2026-04-22 19:05 56.01106 -3.27885 2326 ft 231 kts
2026-04-22 19:06 56.02771 -3.28655 2694 ft 262 kts 333°
2026-04-22 19:06 56.04115 -3.30880 3043 ft 270 kts 303°
2026-04-22 19:06 56.04745 -3.34059 3373 ft 274 kts 274°
2026-04-22 19:07 56.03567 -3.40244 4063 ft 267 kts 233°
2026-04-22 19:07 56.02587 -3.43095 4406 ft 271 kts 238°
2026-04-22 19:07 56.01783 -3.46131 4761 ft 271 kts 245°
2026-04-22 19:07 56.01149 -3.49324 5131 ft 274 kts 249°
2026-04-22 19:08 56.00620 -3.52596 5493 ft 275 kts 252°
2026-04-22 19:08 56.00136 -3.55917 5800 ft 278 kts 252°
2026-04-22 19:08 55.99665 -3.59257 5895 ft 277 kts 252°
2026-04-22 19:08 55.99191 -3.62590 5991 ft 278 kts 252°
2026-04-22 19:09 55.98707 -3.65936 5989 ft 278 kts 252°
2026-04-22 19:09 55.98221 -3.69268 5996 ft 277 kts 252°
2026-04-22 19:09 55.97900 -3.71456 5997 ft 278 kts 252°
2026-04-22 19:09 55.97243 -3.75923 5991 ft 277 kts 252°
2026-04-22 19:10 55.96916 -3.78133 6059 ft 280 kts 252°
2026-04-22 19:10 55.96415 -3.81516 6298 ft 282 kts 252°
2026-04-22 19:10 55.95918 -3.84875 6404 ft 279 kts 252°
2026-04-22 19:10 55.95419 -3.88223 6495 ft 280 kts 251°
2026-04-22 19:11 55.94918 -3.91586 6494 ft 280 kts 252°
2026-04-22 19:11 55.94418 -3.94941 6492 ft 280 kts 251°
2026-04-22 19:11 55.93877 -3.98263 6492 ft 278 kts 246°
2026-04-22 19:11 55.93003 -4.01313 6489 ft 275 kts 231°
2026-04-22 19:12 55.91788 -4.03889 6489 ft 270 kts 220°
2026-04-22 19:12 55.90370 -4.06084 6482 ft 269 kts 214°
2026-04-22 19:12 55.88862 -4.08041 6483 ft 267 kts 211°
2026-04-22 19:12 55.87325 -4.09897 6483 ft 266 kts 210°
2026-04-22 19:13 55.85780 -4.11727 6482 ft 267 kts 210°
2026-04-22 19:13 55.84245 -4.13557 6481 ft 268 kts 210°
2026-04-22 19:13 55.82700 -4.15406 6483 ft 267 kts 210°
2026-04-22 19:13 55.81163 -4.17251 6483 ft 267 kts 210°
2026-04-22 19:14 55.79625 -4.19112 6485 ft 266 kts 210°
2026-04-22 19:14 55.78101 -4.20966 6756 ft 268 kts 211°
2026-04-22 19:14 55.76565 -4.22874 7177 ft 269 kts 211°
2026-04-22 19:14 55.75034 -4.24793 7592 ft 270 kts 212°
2026-04-22 19:15 55.73491 -4.26704 8025 ft 271 kts 208°
2026-04-22 19:15 55.71760 -4.27823 8445 ft 264 kts 184°
2026-04-22 19:15 55.69951 -4.27527 8884 ft 262 kts 160°
2026-04-22 19:15 55.68312 -4.26073 9331 ft 266 kts 150°
2026-04-22 19:16 55.66719 -4.24482 9788 ft 267 kts 150°
2026-04-22 19:16 55.65108 -4.22877 10468 ft 265 kts 150°
2026-04-22 19:16 55.63482 -4.21271 11182 ft 271 kts 151°
2026-04-22 19:16 55.61818 -4.19632 11919 ft 276 kts 151°
2026-04-22 19:17 55.60131 -4.17982 12655 ft 278 kts 151°
2026-04-22 19:17 55.58425 -4.16317 13422 ft 284 kts 152°
2026-04-22 19:17 55.56681 -4.14614 14188 ft 289 kts 152°
2026-04-22 19:17 55.54914 -4.12890 14903 ft 291 kts 152°
2026-04-22 19:18 55.53135 -4.11154 15617 ft 294 kts 152°
2026-04-22 19:18 55.51331 -4.09395 16346 ft 298 kts 152°
2026-04-22 19:18 55.49501 -4.07615 17103 ft 303 kts 152°
2026-04-22 19:18 55.47643 -4.05809 17856 ft 307 kts 152°
2026-04-22 19:19 55.45754 -4.03975 18660 ft 313 kts 152°
2026-04-22 19:19 55.43834 -4.02113 19348 ft 318 kts 153°
2026-04-22 19:19 55.41899 -4.00238 20046 ft 318 kts 153°
2026-04-22 19:19 55.39949 -3.98349 20758 ft 322 kts 153°
2026-04-22 19:20 55.37961 -3.96427 21366 ft 331 kts 153°
2026-04-22 19:20 55.35903 -3.94444 21814 ft 343 kts 153°
2026-04-22 19:20 55.33773 -3.92392 22236 ft 356 kts 153°
2026-04-22 19:20 55.31567 -3.90269 22661 ft 367 kts 153°
2026-04-22 19:21 55.29293 -3.88081 23099 ft 378 kts 153°
2026-04-22 19:21 55.26941 -3.85819 23359 ft 393 kts 153°
2026-04-22 19:21 55.24507 -3.83481 23460 ft 402 kts 153°
2026-04-22 19:21 55.22057 -3.81128 23459 ft 401 kts 153°
2026-04-22 19:22 55.19613 -3.78788 23460 ft 400 kts 153°
2026-04-22 19:22 55.17165 -3.76449 23460 ft 401 kts 153°
2026-04-22 19:22 55.14723 -3.74116 23462 ft 400 kts 153°
2026-04-22 19:22 55.12280 -3.71788 23461 ft 400 kts 153°
2026-04-22 19:23 55.09833 -3.69458 23459 ft 400 kts 153°
2026-04-22 19:23 55.07389 -3.67138 23458 ft 400 kts 153°
2026-04-22 19:23 55.04945 -3.64821 23456 ft 400 kts 153°
2026-04-22 19:23 55.02503 -3.62507 23456 ft 399 kts 153°
2026-04-22 19:24 55.00059 -3.60195 23456 ft 400 kts 153°
2026-04-22 19:24 54.97615 -3.57886 23452 ft 400 kts 153°
2026-04-22 19:24 54.95180 -3.55588 23454 ft 400 kts 153°
2026-04-22 19:24 54.92733 -3.53283 23452 ft 400 kts 153°
2026-04-22 19:25 54.90290 -3.50988 23449 ft 400 kts 153°
2026-04-22 19:25 54.87877 -3.48725 23447 ft 400 kts 153°
2026-04-22 19:25 54.85429 -3.46431 23445 ft 399 kts 153°
2026-04-22 19:25 54.82982 -3.44140 23446 ft 400 kts 153°
2026-04-22 19:26 54.80536 -3.41851 23448 ft 400 kts 153°
2026-04-22 19:26 54.78090 -3.39568 23441 ft 400 kts 153°
2026-04-22 19:26 54.75642 -3.37285 23440 ft 400 kts 153°
2026-04-22 19:26 54.73194 -3.35003 23440 ft 399 kts 153°
2026-04-22 19:27 54.70693 -3.32920 23439 ft 399 kts 158°
2026-04-22 19:27 54.68145 -3.31013 23440 ft 400 kts 158°
2026-04-22 19:27 54.65595 -3.29102 23442 ft 400 kts 158°
2026-04-22 19:27 54.63045 -3.27191 23437 ft 399 kts 158°
2026-04-22 19:28 54.60494 -3.25281 23319 ft 400 kts 158°
2026-04-22 19:28 54.57946 -3.23375 23000 ft 399 kts 158°
2026-04-22 19:28 54.55406 -3.21476 22594 ft 395 kts 158°
2026-04-22 19:28 54.52900 -3.19605 22201 ft 390 kts 158°
2026-04-22 19:29 54.50421 -3.17756 21813 ft 387 kts 158°
2026-04-22 19:29 54.47956 -3.15920 21450 ft 385 kts 158°
2026-04-22 19:29 54.45503 -3.14095 21118 ft 382 kts 158°
2026-04-22 19:29 54.43107 -3.12317 20777 ft 366 kts 158°
2026-04-22 19:30 54.41585 -3.11186 20593 ft 353 kts 158°
2026-04-22 19:30 54.38695 -3.09043 20457 ft 324 kts 158°
2026-04-22 19:30 54.36667 -3.07541 20436 ft 319 kts 158°
2026-04-22 19:30 54.34584 -3.06004 20436 ft 330 kts 158°
2026-04-22 19:31 54.32476 -3.04450 20430 ft 328 kts 158°
2026-04-22 19:31 54.30384 -3.02908 20441 ft 327 kts 158°
2026-04-22 19:31 54.28289 -3.01364 20433 ft 328 kts 158°
2026-04-22 19:31 54.26195 -2.99823 20431 ft 327 kts 158°
2026-04-22 19:32 54.24113 -2.98237 20375 ft 329 kts 154°
2026-04-22 19:32 54.22164 -2.96241 20105 ft 331 kts 147°
2026-04-22 19:32 54.20232 -2.94042 19759 ft 328 kts 147°
2026-04-22 19:32 54.18343 -2.91901 19420 ft 324 kts 147°
2026-04-22 19:33 54.16478 -2.89799 19092 ft 319 kts 147°
2026-04-22 19:33 54.14632 -2.87723 18759 ft 317 kts 147°
2026-04-22 19:33 54.12783 -2.85650 18386 ft 318 kts 147°
2026-04-22 19:33 54.10944 -2.83590 18010 ft 316 kts 147°
2026-04-22 19:34 54.09116 -2.81546 17638 ft 312 kts 148°
2026-04-22 19:34 54.07334 -2.79553 17246 ft 309 kts 148°
2026-04-22 19:34 54.05521 -2.77531 16821 ft 303 kts 148°
2026-04-22 19:34 54.03784 -2.75594 16409 ft 294 kts 148°
2026-04-22 19:35 54.02089 -2.73706 16007 ft 289 kts 148°
2026-04-22 19:35 54.00403 -2.71832 15609 ft 291 kts 148°
2026-04-22 19:35 53.99279 -2.70586 15350 ft 292 kts 148°
2026-04-22 19:35 53.96993 -2.68048 14830 ft 293 kts 148°
2026-04-22 19:36 53.95304 -2.66170 14445 ft 286 kts 148°
2026-04-22 19:36 53.93664 -2.64350 14050 ft 278 kts 148°
2026-04-22 19:36 53.92075 -2.62589 13659 ft 268 kts 148°
2026-04-22 19:36 53.90540 -2.60892 13286 ft 259 kts 148°
2026-04-22 19:37 53.89051 -2.59248 12915 ft 252 kts 148°
2026-04-22 19:37 53.87627 -2.57676 12560 ft 243 kts 148°
2026-04-22 19:37 53.86228 -2.56137 12203 ft 238 kts 148°
2026-04-22 19:37 53.84844 -2.54612 11863 ft 238 kts 147°
2026-04-22 19:38 53.83460 -2.53087 11516 ft 237 kts 147°
2026-04-22 19:38 53.82079 -2.51570 11164 ft 236 kts 147°
2026-04-22 19:38 53.80684 -2.50040 10815 ft 235 kts 147°
2026-04-22 19:38 53.79331 -2.48554 10490 ft 235 kts 147°
2026-04-22 19:39 53.77943 -2.47030 10126 ft 234 kts 146°
2026-04-22 19:39 53.76596 -2.45555 9778 ft 234 kts 147°
2026-04-22 19:39 53.75230 -2.44057 9411 ft 234 kts 147°
2026-04-22 19:39 53.73871 -2.42564 9046 ft 232 kts 147°
2026-04-22 19:40 53.72526 -2.41095 8686 ft 228 kts 147°
2026-04-22 19:40 53.71204 -2.39650 8345 ft 225 kts 147°
2026-04-22 19:40 53.69892 -2.38212 7975 ft 224 kts 147°
2026-04-22 19:40 53.68569 -2.36841 7641 ft 223 kts 156°
2026-04-22 19:41 53.67061 -2.36544 7504 ft 220 kts 188°
2026-04-22 19:41 53.65641 -2.37584 7434 ft 229 kts 205°
2026-04-22 19:41 53.64225 -2.38915 7425 ft 235 kts 205°
2026-04-22 19:41 53.62797 -2.40267 7323 ft 236 kts 205°
2026-04-22 19:42 53.61363 -2.41615 7107 ft 236 kts 205°
2026-04-22 19:42 53.59940 -2.42954 6888 ft 233 kts 205°
2026-04-22 19:42 53.58543 -2.44275 6652 ft 228 kts 205°
2026-04-22 19:42 53.57172 -2.45581 6489 ft 226 kts 205°
2026-04-22 19:43 53.54379 -2.48235 6182 ft 230 kts 205°
2026-04-22 19:43 53.53013 -2.49539 6058 ft 230 kts 205°
2026-04-22 19:43 53.51622 -2.50862 5884 ft 229 kts 205°
2026-04-22 19:44 53.50218 -2.52193 5743 ft 229 kts 204°
2026-04-22 19:44 53.48853 -2.53504 5577 ft 228 kts 205°
2026-04-22 19:44 53.47462 -2.54840 5393 ft 229 kts 205°
2026-04-22 19:44 53.46094 -2.56154 5183 ft 227 kts 205°
2026-04-22 19:45 53.44724 -2.57479 5018 ft 230 kts 205°
2026-04-22 19:45 53.43333 -2.58829 4832 ft 229 kts 205°
2026-04-22 19:45 53.41970 -2.60161 4652 ft 224 kts 205°
2026-04-22 19:45 53.40641 -2.61466 4459 ft 218 kts 205°
2026-04-22 19:46 53.39363 -2.62738 4277 ft 210 kts 205°
2026-04-22 19:46 53.38128 -2.63982 4094 ft 204 kts 205°
2026-04-22 19:46 53.36927 -2.65209 3946 ft 201 kts 204°
2026-04-22 19:46 53.35725 -2.66451 3749 ft 203 kts 205°
2026-04-22 19:47 53.34531 -2.67686 3563 ft 202 kts 205°
2026-04-22 19:47 53.33331 -2.68919 3304 ft 203 kts 205°
2026-04-22 19:47 53.32519 -2.69761 3150 ft 204 kts 204°
2026-04-22 19:47 53.30985 -2.71341 2978 ft 188 kts 196°
2026-04-22 19:48 53.29749 -2.71494 2891 ft 177 kts 158°
2026-04-22 19:48 53.28813 -2.70310 2897 ft 168 kts 126°
2026-04-22 19:48 53.28208 -2.68844 2880 ft 138 kts 124°
2026-04-22 19:48 53.27660 -2.67494 2898 ft 149 kts 124°
2026-04-22 19:49 53.27080 -2.66057 2900 ft 151 kts 124°
2026-04-22 19:49 53.26496 -2.64604 2886 ft 150 kts 124°
2026-04-22 19:49 53.25916 -2.63154 2878 ft 149 kts 124°
2026-04-22 19:49 53.25331 -2.61699 2876 ft 152 kts 124°
2026-04-22 19:50 53.24771 -2.60227 2911 ft 153 kts 120°
2026-04-22 19:50 53.24257 -2.58690 2856 ft 148 kts 120°
2026-04-22 19:50 53.23738 -2.57162 2887 ft 153 kts 120°
2026-04-22 19:50 53.23239 -2.55621 2881 ft 152 kts 111°
2026-04-22 19:51 53.23315 -2.53865 2900 ft 163 kts 69°
2026-04-22 19:51 53.23990 -2.52298 2703 ft 162 kts 68°
2026-04-22 19:51 53.24542 -2.50683 2783 ft 164 kts 66°
2026-04-22 19:51 53.25158 -2.49067 2850 ft 165 kts 64°
2026-04-22 19:52 53.25770 -2.47473 2749 ft 162 kts 65°
2026-04-22 19:52 53.26425 -2.45943 2491 ft 162 kts 56°
2026-04-22 19:52 53.27152 -2.44553 2267 ft 157 kts 58°
2026-04-22 19:52 53.27811 -2.43235 2052 ft 145 kts 60°
2026-04-22 19:53 53.28228 -2.41797 1934 ft 133 kts 77°
2026-04-22 19:53 53.28666 -2.40363 1554 ft 144 kts 60°
2026-04-22 19:53 53.29099 -2.39532 1343 ft 144 kts 53°
2026-04-22 19:53 53.29980 -2.37870 1170 ft 144 kts 58°
2026-04-22 19:54 53.30567 -2.36503 901 ft 140 kts 58°
2026-04-22 19:54 53.31134 -2.35321 793 ft 123 kts 52°
2026-04-22 19:54 53.31663 -2.34229 520 ft 117 kts 53°
2026-04-22 19:54 53.32146 -2.33273 426 ft 101 kts 53°
2026-04-22 19:55 53.32602 -2.32321 354 ft 111 kts 53°
2026-04-22 19:55 53.33105 -2.31274 238 ft 117 kts 54°
2026-04-22 19:55 53.33589 -2.30228 209 ft 109 kts 51°
2026-04-22 19:55 53.33895 -2.29603 212 ft 53 kts 50°
2026-04-22 19:56 53.34113 -2.29167 218 ft 45 kts 50°
2026-04-22 19:56 53.34293 -2.28806 220 ft 26 kts 49°
2026-04-22 19:56 53.34424 -2.28606 223 ft 25 kts 36°
2026-04-22 19:56 53.34458 -2.28571 224 ft 0 kts 30°
2026-04-22 19:57 53.34547 -2.28504 225 ft 26 kts 21°
2026-04-22 19:57 53.34629 -2.28447 226 ft 0 kts 24°